This is the latest recevied weather packets stored in our database for station/object KR4CWL-13. If no packets are shown the sender has not sent any weather packets the latest 10 day(s).
| Time | Temp. | Humidity | Pressure | Rain* | Wind** | Luminosity | Snow |
|---|---|---|---|---|---|---|---|
| 1777857244 | 11.67° C | 66% | 1009.1 hPa | 0 mm | - | - | - |
| 1777856644 | 11.67° C | 63% | 1008.8 hPa | 0 mm | - | - | - |
| 1777856044 | 12.22° C | 62% | 1008.8 hPa | 0 mm | - | - | - |
| 1777855444 | 12.78° C | 61% | 1008.8 hPa | 0 mm | - | - | - |
| 1777854844 | 12.78° C | 61% | 1008.5 hPa | 0 mm | - | - | - |
| 1777854244 | 13.89° C | 57% | 1008.5 hPa | 0 mm | - | - | - |
| 1777853644 | 14.44° C | 57% | 1008.5 hPa | 0 mm | - | - | - |
| 1777853044 | 15° C | 56% | 1008.5 hPa | 0 mm | - | - | - |
| 1777852444 | 15.56° C | 50% | 1008.5 hPa | 0 mm | - | - | - |
| 1777851844 | 16.11° C | 48% | 1008.5 hPa | 0 mm | - | - | - |
| 1777851243 | 16.11° C | 45% | 1008.5 hPa | 0 mm | - | - | - |
| 1777850643 | 16.67° C | 41% | 1008.5 hPa | 0 mm | - | - | - |
| 1777850043 | 16.67° C | 39% | 1008.5 hPa | 0 mm | - | - | - |
| 1777849443 | 17.22° C | 39% | 1008.5 hPa | 0 mm | - | - | - |
| 1777848843 | 17.22° C | 38% | 1008.5 hPa | 0 mm | - | - | - |
| 1777848243 | 17.22° C | 37% | 1008.5 hPa | 0 mm | - | - | - |
| 1777847643 | 17.22° C | 38% | 1008.5 hPa | 0 mm | - | - | - |
| 1777847043 | 17.78° C | 37% | 1008.5 hPa | 0 mm | - | - | - |
| 1777846443 | 17.78° C | 36% | 1008.5 hPa | 0 mm | - | - | - |
| 1777845843 | 17.78° C | 37% | 1008.5 hPa | 0 mm | - | - | - |
| 1777845243 | 17.78° C | 36% | 1008.8 hPa | 0 mm | - | - | - |
| 1777844643 | 17.78° C | 35% | 1008.8 hPa | 0 mm | - | - | - |
| 1777844043 | 17.78° C | 35% | 1008.8 hPa | 0 mm | - | - | - |
| 1777843443 | 17.78° C | 34% | 1008.8 hPa | 0 mm | - | - | - |
| 1777842843 | 17.78° C | 34% | 1008.8 hPa | 0 mm | - | - | - |
* Rain since midnight (hover to see other rain measurements)
** Current wind speed in m/s (hover to see current wind gust speed)